Location: Mary A Oil Field
(38.5606°N, 98.9545°W)
Time: 18:44:38
(UTC+00:00)

Cosmos 1697 Rocket - Pass Details

Date: 20 January 2020
Orbit: 833 x 843 km, 71.0° (Epoch: 16 February)

Event Time Altitude Azimuth Distance (km) Brightness Sun altitude
Exits shadow 11:47:06 55° 306° (NW) 995 2.7 -23.8°
Drops below altitude 10° 11:52:23 10° 14° (NNE) 2,449 5.2 -22.8°
Sets 11:54:54 0° 19° (NNE) 3,387 6.0 -22.3°
